Davenport, IA

8:48 AM CST on December 06, 2016 (GMT -0600)
Davenport Municipal

Weather History for KDVN - April, 2013

Change the Weather History Date:

Wednesday, April 10, 2013

  Actual Average Record
Temperature  
Mean Temperature 40 °F 48 °F  
Max Temperature 42 °F 60 °F 83 °F (1977)
Min Temperature 37 °F 37 °F 26 °F (1960)
Degree Days  
Heating Degree Days 25 17  
Month to date heating degree days 204 183  
Since 1 July heating degree days 6058 6041  
Cooling Degree Days 0 0  
Month to date cooling degree days 0 0  
Year to date cooling degree days 0 0  
Moisture  
Dew Point 38 °F    
Average Humidity 95    
Maximum Humidity 100    
Minimum Humidity 89    
Precipitation  
Precipitation 1.44 in 0.11 in 1.44 in (2013)
Month to date precipitation 2.68 0.99  
Year to date precipitation 8.38 6.04  
Snow  
Snow 0.00 in - - ()
Month to date snowfall T  
Since 1 July snowfall 27.1  
Snow Depth 0.00 in    
Sea Level Pressure  
Sea Level Pressure 29.86 in    
Wind  
Wind Speed 17 mph (ENE)    
Max Wind Speed 37 mph    
Max Gust Speed 44 mph    
Visibility 6 miles    
Events Rain , Thunderstorm    
T = Trace of Precipitation, MM = Missing Value Source: NWS Daily Summary

Daily Weather History Graph

Daily Weather History Graph

Search for Another Location

Airport or City:

Trip Planner

Search our weather history database for the weather conditions in past years. The results will help you decide how hot, cold, wet, or windy it might be!

Date:

Astronomy

Apr. 10, 2013 Rise Set
Actual Time 6:30 AM CDT 7:37 PM CDT
Civil Twilight 6:01 AM CDT 8:06 PM CDT
Nautical Twilight 5:27 AM CDT 8:40 PM CDT
Astronomical Twilight 4:51 AM CDT 9:16 PM CDT
Moon 6:25 AM CDT (4/10) 8:14 PM CDT (4/10)
Length of Visible Light 14h 04m
Length of Day
13h 07m
New Moon, 0% of the Moon is Illuminated
Apr 10
New Moon
Apr 18
First Quarter
Apr 25
Full
May 2
Last Quarter
May 9
New

Hourly Weather History & Observations

Time (CDT) Temp. Windchill Dew Point Humidity Pressure Visibility Wind Dir Wind Speed Gust Speed Precip Events Conditions
12:52 AM 42.1 °F 34.9 °F 39.9 °F 92% 29.86 in 6.0 mi East 13.8 mph 24.2 mph N/A   Overcast
1:52 AM 42.1 °F 34.5 °F 39.9 °F 92% 29.86 in 6.0 mi ENE 15.0 mph - N/A   Overcast
2:52 AM 42.1 °F 34.2 °F 39.0 °F 89% 29.84 in 6.0 mi East 16.1 mph - N/A   Overcast
3:25 AM 41.0 °F 32.2 °F 39.2 °F 93% 29.83 in 5.0 mi ENE 18.4 mph - N/A Thunderstorm Overcast
3:40 AM 41.0 °F 33.1 °F 39.2 °F 93% 29.85 in 5.0 mi NE 15.0 mph 24.2 mph N/A   Overcast
3:52 AM 42.1 °F 32.8 °F 39.0 °F 89% 29.91 in 5.0 mi North 21.9 mph 29.9 mph 0.00 in Rain Light Rain
3:55 AM 41.0 °F 32.2 °F 39.2 °F 93% 29.87 in 4.0 mi NNE 18.4 mph 28.8 mph 0.00 in Rain , Thunderstorm Light Rain
4:15 AM 39.2 °F 27.8 °F 37.4 °F 93% 29.89 in 1.8 mi NNE 27.6 mph 33.4 mph 0.13 in Rain , Thunderstorm Heavy Thunderstorms and Rain
4:29 AM 39.2 °F 28.3 °F 37.4 °F 93% 29.89 in 2.0 mi NNE 25.3 mph 34.5 mph 0.19 in Rain , Thunderstorm Thunderstorms and Rain
4:39 AM 39.2 °F 28.3 °F 37.4 °F 93% 29.89 in 5.0 mi NNE 25.3 mph 33.4 mph 0.20 in Rain , Thunderstorm Light Thunderstorms and Rain
4:52 AM 39.0 °F 28.3 °F 37.0 °F 93% 29.87 in 10.0 mi NE 24.2 mph 35.7 mph 0.20 in Thunderstorm Overcast
5:02 AM 39.2 °F 28.5 °F 35.6 °F 87% 29.86 in 10.0 mi NE 24.2 mph 34.5 mph 0.00 in Rain , Thunderstorm Light Rain
5:14 AM 39.2 °F 28.7 °F 35.6 °F 87% 29.86 in 10.0 mi NNE 23.0 mph 35.7 mph 0.01 in Rain , Thunderstorm Light Thunderstorms and Rain
5:22 AM 37.4 °F 26.9 °F 35.6 °F 93% 29.93 in 2.5 mi NE 20.7 mph 31.1 mph 0.12 in Rain , Thunderstorm Heavy Thunderstorms and Rain
5:30 AM 37.4 °F 26.4 °F 35.6 °F 93% 29.91 in 1.2 mi ENE 23.0 mph 28.8 mph 0.24 in Rain , Thunderstorm Heavy Thunderstorms and Rain
5:45 AM 37.4 °F 27.2 °F 35.6 °F 93% 29.93 in 1.8 mi ENE 19.6 mph 24.2 mph 0.34 in Rain , Thunderstorm Heavy Thunderstorms and Rain
5:52 AM 37.0 °F 26.2 °F 35.1 °F 93% 29.93 in 2.0 mi ENE 21.9 mph 35.7 mph 0.37 in Rain , Thunderstorm Heavy Rain
6:09 AM 37.4 °F 26.4 °F 35.6 °F 93% 29.79 in 4.0 mi East 23.0 mph 43.7 mph 0.04 in Rain Light Rain
6:14 AM 37.4 °F 27.2 °F 35.6 °F 93% 29.82 in 8.0 mi ENE 19.6 mph 34.5 mph 0.04 in Rain Light Rain
6:31 AM 37.4 °F 26.6 °F 35.6 °F 93% 29.84 in 10.0 mi East 21.9 mph - 0.04 in   Overcast
6:52 AM 37.0 °F 28.1 °F 35.1 °F 93% 29.87 in 10.0 mi East 15.0 mph - 0.04 in   Overcast
7:52 AM 37.9 °F 28.9 °F 36.0 °F 93% 29.88 in 10.0 mi NE 16.1 mph - N/A   Overcast
8:52 AM 39.0 °F 32.8 °F 36.0 °F 89% 30.01 in 8.0 mi South 9.2 mph - 0.00 in Rain Light Rain
9:52 AM 37.9 °F 27.9 °F 37.0 °F 97% 29.83 in 6.0 mi ENE 19.6 mph - 0.05 in Rain Light Rain
10:52 AM 39.9 °F 32.9 °F 37.0 °F 89% 29.93 in 10.0 mi ENE 11.5 mph - 0.00 in   Overcast
11:52 AM 39.9 °F 32.1 °F 37.9 °F 93% 29.92 in 7.0 mi ENE 13.8 mph - 0.00 in   Overcast
12:52 PM 39.9 °F 35.8 °F 37.9 °F 93% 30.01 in 1.8 mi East 5.8 mph - 0.06 in Rain Heavy Rain
1:08 PM 39.2 °F 32.5 °F 37.4 °F 93% 29.96 in 2.5 mi ENE 10.4 mph - 0.04 in Rain Rain
1:23 PM 39.2 °F 30.8 °F 37.4 °F 93% 29.92 in 3.0 mi NE 15.0 mph - 0.05 in Rain Light Rain
1:31 PM 41.0 °F 32.8 °F 39.2 °F 93% 29.91 in 2.5 mi NE 16.1 mph - 0.06 in Rain Rain
1:39 PM 41.0 °F 32.8 °F 37.4 °F 87% 29.90 in 4.0 mi NE 16.1 mph - 0.07 in Rain Light Rain
1:52 PM 39.9 °F 31.8 °F 37.9 °F 93% 29.92 in 5.0 mi NE 15.0 mph - 0.07 in Rain Light Rain
2:34 PM 41.0 °F 33.5 °F 37.4 °F 87% 29.91 in 2.5 mi NNE 13.8 mph - 0.06 in Rain Light Rain
2:52 PM 41.0 °F 32.8 °F 39.0 °F 93% 29.90 in 2.5 mi NNE 16.1 mph - 0.08 in Rain Light Rain
3:01 PM 41.0 °F 34.7 °F 39.2 °F 93% 29.90 in 4.0 mi NE 10.4 mph - 0.01 in Rain Light Rain
3:52 PM 42.1 °F 33.3 °F 39.0 °F 89% 29.86 in 10.0 mi ENE 19.6 mph 25.3 mph 0.02 in   Overcast
4:52 PM 42.1 °F 34.2 °F 39.9 °F 92% 29.89 in 9.0 mi East 16.1 mph 23.0 mph 0.02 in   Overcast
5:52 PM 42.1 °F 31.7 °F 39.0 °F 89% 29.79 in 10.0 mi ENE 27.6 mph 34.5 mph N/A   Overcast
6:52 PM 41.0 °F 32.8 °F 39.0 °F 93% 29.81 in 8.0 mi East 16.1 mph 25.3 mph 0.01 in Rain Light Rain
7:52 PM 39.9 °F 32.5 °F 39.0 °F 97% 29.85 in 3.0 mi ENE 12.7 mph - 0.13 in Rain Rain
8:52 PM 39.9 °F 31.1 °F 37.9 °F 93% 29.83 in 5.0 mi ENE 17.3 mph - 0.11 in Rain Light Rain
9:52 PM 39.9 °F 31.4 °F 37.9 °F 93% 29.85 in 4.0 mi ENE 16.1 mph - 0.16 in Rain Rain
10:48 PM 39.2 °F 30.2 °F 37.4 °F 93% 29.79 in 2.5 mi ENE 17.3 mph 23.0 mph 0.11 in Rain Rain
10:52 PM 39.9 °F 29.7 °F 37.0 °F 89% 29.79 in 3.0 mi ENE 23.0 mph 27.6 mph 0.11 in Rain Light Rain
10:59 PM 39.2 °F 27.4 °F 37.4 °F 93% 29.71 in 6.0 mi ENE 29.9 mph - 0.00 in Rain Light Rain
11:07 PM 39.2 °F 28.0 °F 37.4 °F 93% 29.67 in 9.0 mi ENE 26.5 mph 39.1 mph 0.01 in Rain Light Rain
11:14 PM 39.2 °F 27.6 °F 37.4 °F 93% 29.68 in 8.0 mi ENE 28.8 mph 35.7 mph 0.01 in Rain Light Rain
11:52 PM 39.9 °F 30.5 °F 37.0 °F 89% 29.74 in 10.0 mi ENE 19.6 mph 29.9 mph 0.01 in   Overcast